Weather History for EGLF - April, 2013

Change the Weather History Date:

Monday, April 1, 2013

  Actual Average (EGLL) Record (EGLL)
Temperature  
Mean Temperature 36 °F -  
Max Temperature 42 °F 56 °F 68 °F (1999)
Min Temperature 30 °F 42 °F 33 °F (2013)
Degree Days  
Heating Degree Days 29    
Moisture  
Dew Point 24 °F    
Average Humidity 57    
Maximum Humidity 81    
Minimum Humidity 33    
Precipitation  
Precipitation 0.00 in - - ()
Sea Level Pressure  
Sea Level Pressure 29.84 in    
Wind  
Wind Speed 13 mph ()    
Max Wind Speed 25 mph    
Max Gust Speed -    
Visibility 6.5 miles    
Events      
Averages and records for this station are not official NWS values.
T = Trace of Precipitation, MM = Missing Value Source: Averaged Metar Reports

Daily Weather History Graph

Daily Weather History Graph

Search for Another Location

Airport or City:

Trip Planner

Search our weather history database for the weather conditions in past years. The results will help you decide how hot, cold, wet, or windy it might be!

Date:

Astronomy

Apr. 01, 2013 Rise Set
Actual Time 6:38 AM BST 7:36 PM BST
Civil Twilight 6:04 AM BST 8:10 PM BST
Nautical Twilight 5:24 AM BST 8:50 PM BST
Astronomical Twilight 4:40 AM BST 9:34 PM BST
Moon 12:59 AM BST (4/1) 9:39 AM BST (4/1)
Length of Visible Light 14h 05m
Length of Day
12h 57m
Waning Gibbous, 69% of the Moon is Illuminated
Apr 1
Waning Gibbous
Apr 3
Last Quarter
Apr 10
New
Apr 18
First Quarter
Apr 25
Full

Hourly Weather History & Observations

Time (BST) Temp. Windchill Dew Point Humidity Pressure Visibility Wind Dir Wind Speed Gust Speed Precip Events Conditions
12:50 AM 31 °F - 26 °F 76% 29.90 in 9 mi ENE 5.8 mph - -  
3:50 AM 34 °F - 28 °F 71% 29.86 in 7 mi ENE 10.4 mph - -   Overcast
6:50 AM 34 °F - 28 °F 71% 29.85 in 6 mi ENE 9.2 mph - -   Overcast
7:50 AM 33.8 °F 25.8 °F 28.4 °F 81% 29.83 in 6.2 mi ENE 10.4 mph - N/A   Mostly Cloudy
8:20 AM 33.8 °F 27.0 °F 28.4 °F 81% 29.83 in 6.2 mi ENE 8.1 mph - N/A   Mostly Cloudy
8:50 AM 35.6 °F 28.6 °F 28.4 °F 75% 29.83 in 6.2 mi ENE 9.2 mph - N/A   Mostly Cloudy
9:20 AM 35.6 °F 28.0 °F 28.4 °F 75% 29.83 in 5.6 mi ENE 10.4 mph - N/A   Mostly Cloudy
9:50 AM 36 °F - 26 °F 54% 29.86 in 4 mi East 12.7 mph - -   Overcast
9:50 AM 35.6 °F 27.1 °F 26.6 °F 70% 29.83 in 5.0 mi ENE 12.7 mph - N/A   Mostly Cloudy
10:20 AM 37.4 °F 27.5 °F 23.0 °F 56% 29.83 in 5.0 mi East 18.4 mph - N/A   Mostly Cloudy
10:50 AM 37.4 °F 27.5 °F 23.0 °F 56% 29.86 in 5.6 mi East 18.4 mph - N/A   Mostly Cloudy
11:20 AM 37.4 °F 27.5 °F 23.0 °F 56% 29.86 in 5.6 mi East 18.4 mph - N/A   Mostly Cloudy
11:50 AM 37.4 °F 27.2 °F 24.8 °F 60% 29.86 in 5.6 mi ENE 19.6 mph - N/A   Mostly Cloudy
12:20 PM 37.4 °F 27.2 °F 24.8 °F 60% 29.86 in 5.6 mi East 19.6 mph - N/A   Mostly Cloudy
12:50 PM 38 °F - 24 °F 45% 29.86 in 6 mi East 16.1 mph - -   Overcast
12:50 PM 37.4 °F 27.5 °F 24.8 °F 60% 29.86 in 5.6 mi East 18.4 mph - N/A   Mostly Cloudy
1:20 PM 39.2 °F 29.8 °F 24.8 °F 56% 29.86 in 6.2 mi East 18.4 mph - N/A   Mostly Cloudy
1:50 PM 39.2 °F 28.7 °F 23.0 °F 52% 29.86 in 6.2 mi ENE 23.0 mph - N/A   Mostly Cloudy
2:20 PM 39.2 °F 29.6 °F 24.8 °F 56% 29.83 in 6.2 mi ENE 19.6 mph - N/A   Mostly Cloudy
2:50 PM 39.2 °F 29.6 °F 23.0 °F 52% 29.83 in 6.2 mi ENE 19.6 mph - N/A   Scattered Clouds
3:20 PM 41.0 °F 31.1 °F 21.2 °F 45% 29.83 in 6.2 mi ENE 23.0 mph - N/A   Scattered Clouds
3:50 PM 42 °F - 23 °F 33% 29.84 in 10 mi East 25.3 mph - -   Scattered Clouds
3:50 PM 41.0 °F 30.9 °F 19.4 °F 42% 29.83 in - ENE 24.2 mph - N/A   Scattered Clouds
4:20 PM 42.8 °F 33.5 °F 21.2 °F 42% 29.83 in 6.2 mi East 23.0 mph - N/A   Scattered Clouds
4:50 PM 41.0 °F 31.1 °F 21.2 °F 45% 29.83 in 6.2 mi ENE 23.0 mph - N/A   Scattered Clouds
5:20 PM 41.0 °F 31.4 °F 23.0 °F 49% 29.83 in 6.2 mi ENE 21.9 mph - N/A   Scattered Clouds
5:50 PM 39.2 °F 29.0 °F 23.0 °F 52% 29.83 in 6.2 mi NE 21.9 mph - N/A   Partly Cloudy
6:20 PM 39.2 °F 28.7 °F 21.2 °F 49% 29.83 in 6.2 mi ENE 23.0 mph - N/A   Partly Cloudy
6:50 PM 38 °F - 22 °F 39% 29.85 in 12 mi East 18.4 mph - -  
6:50 PM 39.2 °F 29.0 °F 21.2 °F 49% 29.83 in 6.2 mi ENE 21.9 mph - N/A   Partly Cloudy
7:20 PM 37.4 °F 27.5 °F 21.2 °F 52% 29.83 in 6.2 mi ENE 18.4 mph - N/A   Partly Cloudy
9:50 PM 34 °F - 22 °F 50% 29.88 in 11 mi ENE 9.2 mph - -